Time,TemperatureF,DewpointF,PressureIn,WindDirection,WindDirectionDegrees,WindSpeedMPH,WindSpeedGustMPH,Humidity,HourlyPrecipIn,Conditions,Clouds,dailyrainin,SoftwareType,DateUTC
2013-09-11 00:01:00,79.5,72.5,30.04,NE,49,5.0,7.0,79,0.00,,,0.00,meteohub,2013-09-11 04:01:00,
2013-09-11 00:02:00,79.5,72.5,30.04,ESE,113,2.0,7.0,79,0.00,,,0.00,meteohub,2013-09-11 04:02:00,
2013-09-11 00:03:00,79.5,72.5,30.04,ENE,72,3.0,7.0,79,0.00,,,0.00,meteohub,2013-09-11 04:03:00,
2013-09-11 00:04:00,79.5,72.5,30.04,SE,146,2.0,7.0,79,0.00,,,0.00,meteohub,2013-09-11 04:04:00,
2013-09-11 00:06:00,79.5,72.5,30.04,ESE,123,0.0,7.0,79,0.00,,,0.00,meteohub,2013-09-11 04:06:00,
2013-09-11 00:11:00,79.3,72.7,30.04,East,86,1.0,7.0,80,0.00,,,0.00,meteohub,2013-09-11 04:11:00,
2013-09-11 00:16:00,79.2,72.5,30.04,ENE,77,1.0,6.0,80,0.00,,,0.00,meteohub,2013-09-11 04:16:00,
2013-09-11 00:21:00,79.2,72.5,30.04,East,88,0.0,5.0,80,0.00,,,0.00,meteohub,2013-09-11 04:21:00,
2013-09-11 00:26:00,79.2,72.5,30.04,ENE,65,1.0,7.0,80,0.00,,,0.00,meteohub,2013-09-11 04:26:00,
2013-09-11 00:31:00,79.0,72.3,30.04,East,87,1.0,7.0,80,0.00,,,0.00,meteohub,2013-09-11 04:31:00,
2013-09-11 00:36:00,79.0,72.7,30.04,NE,35,4.0,4.0,81,0.00,,,0.00,meteohub,2013-09-11 04:36:00,
2013-09-11 00:42:00,78.8,72.5,30.04,ENE,63,0.0,6.0,81,0.00,,,0.00,meteohub,2013-09-11 04:42:00,
2013-09-11 00:47:00,78.6,72.3,30.04,SE,136,2.0,6.0,81,0.00,,,0.00,meteohub,2013-09-11 04:47:00,
2013-09-11 00:52:00,78.6,72.3,30.04,SE,131,0.0,6.0,81,0.00,,,0.00,meteohub,2013-09-11 04:52:00,
2013-09-11 00:57:00,78.4,72.1,30.04,SE,144,2.0,6.0,81,0.00,,,0.00,meteohub,2013-09-11 04:57:00,
2013-09-11 01:02:00,78.4,72.5,30.04,ESE,122,1.0,6.0,82,0.00,,,0.00,meteohub,2013-09-11 05:02:00,
2013-09-11 01:07:00,78.4,72.5,30.04,ENE,69,1.0,6.0,82,0.00,,,0.00,meteohub,2013-09-11 05:07:00,
2013-09-11 01:12:00,78.4,72.5,30.04,ENE,75,0.0,6.0,82,0.00,,,0.00,meteohub,2013-09-11 05:12:00,
2013-09-11 01:17:00,78.3,72.3,30.04,ENE,63,1.0,6.0,82,0.00,,,0.00,meteohub,2013-09-11 05:17:00,
2013-09-11 01:22:00,78.3,72.3,30.03,NE,55,5.0,6.0,82,0.00,,,0.00,meteohub,2013-09-11 05:22:00,
2013-09-11 01:27:00,78.1,72.5,30.03,ESE,121,1.0,5.0,83,0.00,,,0.00,meteohub,2013-09-11 05:27:00,
2013-09-11 01:32:00,78.1,72.5,30.03,SSE,151,0.0,6.0,83,0.00,,,0.00,meteohub,2013-09-11 05:32:00,
2013-09-11 01:37:00,77.9,72.3,30.03,ENE,78,4.0,6.0,83,0.00,,,0.00,meteohub,2013-09-11 05:37:00,
2013-09-11 01:42:00,77.9,72.3,30.03,SSE,148,3.0,6.0,83,0.00,,,0.00,meteohub,2013-09-11 05:42:00,
2013-09-11 01:47:00,77.9,72.3,30.03,East,95,0.0,5.0,83,0.00,,,0.00,meteohub,2013-09-11 05:47:00,
2013-09-11 01:52:00,77.9,72.7,30.03,NE,48,1.0,5.0,84,0.00,,,0.00,meteohub,2013-09-11 05:52:00,
2013-09-11 01:57:00,77.7,72.5,30.03,ENE,76,0.0,5.0,84,0.00,,,0.00,meteohub,2013-09-11 05:57:00,
2013-09-11 02:02:00,77.7,72.5,30.03,ENE,71,1.0,5.0,84,0.00,,,0.00,meteohub,2013-09-11 06:02:00,
2013-09-11 02:07:00,77.5,72.7,30.02,ENE,71,1.0,5.0,85,0.00,,,0.00,meteohub,2013-09-11 06:07:00,
2013-09-11 02:12:00,77.5,72.7,30.02,ENE,71,2.0,5.0,85,0.00,,,0.00,meteohub,2013-09-11 06:12:00,
2013-09-11 02:17:00,77.5,73.0,30.02,NE,55,1.0,4.0,86,0.00,,,0.00,meteohub,2013-09-11 06:17:00,
2013-09-11 02:22:00,77.5,73.0,30.02,NE,55,0.0,4.0,86,0.00,,,0.00,meteohub,2013-09-11 06:22:00,
2013-09-11 02:27:00,77.4,72.9,30.02,NE,55,0.0,4.0,86,0.00,,,0.00,meteohub,2013-09-11 06:27:00,
2013-09-11 02:32:00,77.4,72.9,30.01,NE,55,2.0,3.0,86,0.00,,,0.00,meteohub,2013-09-11 06:32:00,
2013-09-11 02:37:00,77.2,73.0,30.01,NE,55,0.0,3.0,87,0.00,,,0.00,meteohub,2013-09-11 06:37:00,
2013-09-11 02:42:00,77.2,73.0,30.01,NE,54,0.0,3.0,87,0.00,,,0.00,meteohub,2013-09-11 06:42:00,
2013-09-11 02:47:00,77.0,72.9,30.01,NE,54,3.0,4.0,87,0.00,,,0.00,meteohub,2013-09-11 06:47:00,
2013-09-11 02:52:00,77.0,72.9,30.01,NE,54,0.0,4.0,87,0.00,,,0.00,meteohub,2013-09-11 06:52:00,
2013-09-11 02:57:00,76.8,73.0,30.01,NE,54,0.0,4.0,88,0.00,,,0.00,meteohub,2013-09-11 06:57:00,
2013-09-11 03:02:00,76.6,72.9,30.01,NE,50,0.0,4.0,88,0.00,,,0.00,meteohub,2013-09-11 07:02:00,
2013-09-11 03:07:00,76.5,72.7,30.01,ENE,62,1.0,4.0,88,0.00,,,0.00,meteohub,2013-09-11 07:07:00,
2013-09-11 03:12:00,76.5,73.0,30.01,ENE,61,2.0,5.0,89,0.00,,,0.00,meteohub,2013-09-11 07:12:00,
2013-09-11 03:17:00,76.3,72.5,30.01,NE,51,3.0,5.0,88,0.00,,,0.00,meteohub,2013-09-11 07:17:00,
2013-09-11 03:22:00,76.1,72.7,30.01,NE,44,1.0,5.0,89,0.00,,,0.00,meteohub,2013-09-11 07:22:00,
2013-09-11 03:27:00,75.9,72.5,30.01,NE,44,3.0,5.0,89,0.00,,,0.00,meteohub,2013-09-11 07:27:00,
2013-09-11 03:32:00,75.9,72.5,30.01,NE,43,0.0,5.0,89,0.00,,,0.00,meteohub,2013-09-11 07:32:00,
2013-09-11 03:37:00,75.7,72.3,30.01,NNE,29,0.0,5.0,89,0.00,,,0.00,meteohub,2013-09-11 07:37:00,
2013-09-11 03:42:00,75.7,72.3,30.00,NNE,24,0.0,5.0,89,0.00,,,0.00,meteohub,2013-09-11 07:42:00,
2013-09-11 03:47:00,75.6,72.1,30.00,NE,49,1.0,5.0,89,0.00,,,0.00,meteohub,2013-09-11 07:47:00,
2013-09-11 03:52:00,75.6,72.5,30.00,NE,45,1.0,5.0,90,0.00,,,0.00,meteohub,2013-09-11 07:52:00,
2013-09-11 03:57:00,75.4,72.3,30.00,SE,133,0.0,5.0,90,0.00,,,0.00,meteohub,2013-09-11 07:57:00,
2013-09-11 04:02:00,75.4,72.3,30.00,NE,39,0.0,4.0,90,0.00,,,0.00,meteohub,2013-09-11 08:02:00,
2013-09-11 04:07:00,75.2,72.1,30.00,NE,54,1.0,4.0,90,0.00,,,0.00,meteohub,2013-09-11 08:07:00,
2013-09-11 04:12:00,75.0,72.0,30.00,NE,41,3.0,4.0,90,0.00,,,0.00,meteohub,2013-09-11 08:12:00,
2013-09-11 04:17:00,75.0,72.1,30.00,NE,42,0.0,4.0,91,0.00,,,0.00,meteohub,2013-09-11 08:17:00,
2013-09-11 04:22:00,75.0,72.1,30.00,ENE,57,2.0,4.0,91,0.00,,,0.00,meteohub,2013-09-11 08:22:00,
2013-09-11 04:27:00,74.8,72.0,30.00,ENE,60,0.0,4.0,91,0.00,,,0.00,meteohub,2013-09-11 08:27:00,
2013-09-11 04:32:00,74.8,72.0,30.00,NE,53,0.0,4.0,91,0.00,,,0.00,meteohub,2013-09-11 08:32:00,
2013-09-11 04:37:00,74.8,72.0,30.00,NE,53,1.0,4.0,91,0.00,,,0.00,meteohub,2013-09-11 08:37:00,
2013-09-11 04:42:00,74.8,72.0,30.00,NE,53,1.0,4.0,91,0.00,,,0.00,meteohub,2013-09-11 08:42:00,
2013-09-11 04:47:00,74.7,71.8,30.00,NE,52,0.0,4.0,91,0.00,,,0.00,meteohub,2013-09-11 08:47:00,
2013-09-11 04:52:00,74.7,72.1,30.00,NE,45,1.0,4.0,92,0.00,,,0.00,meteohub,2013-09-11 08:52:00,
2013-09-11 04:57:00,74.7,72.1,30.00,NE,45,0.0,4.0,92,0.00,,,0.00,meteohub,2013-09-11 08:57:00,
2013-09-11 05:02:00,74.5,72.0,29.99,NE,45,0.0,4.0,92,0.00,,,0.00,meteohub,2013-09-11 09:02:00,
2013-09-11 05:07:00,74.5,72.0,29.99,ENE,74,2.0,4.0,92,0.00,,,0.00,meteohub,2013-09-11 09:07:00,
2013-09-11 05:12:00,74.5,72.0,30.00,ENE,65,0.0,4.0,92,0.00,,,0.00,meteohub,2013-09-11 09:12:00,
2013-09-11 05:17:00,74.3,71.8,30.00,ENE,61,0.0,4.0,92,0.00,,,0.00,meteohub,2013-09-11 09:17:00,
2013-09-11 05:22:00,74.3,71.8,30.00,NE,55,1.0,4.0,92,0.00,,,0.00,meteohub,2013-09-11 09:22:00,
2013-09-11 05:27:00,74.3,71.8,30.00,NE,55,1.0,5.0,92,0.00,,,0.00,meteohub,2013-09-11 09:27:00,
2013-09-11 05:32:00,74.1,71.6,30.00,NE,55,1.0,5.0,92,0.00,,,0.00,meteohub,2013-09-11 09:32:00,
2013-09-11 05:37:00,74.1,72.0,30.00,NE,55,2.0,3.0,93,0.00,,,0.00,meteohub,2013-09-11 09:37:00,
2013-09-11 05:42:00,74.1,72.0,30.00,NE,55,0.0,3.0,93,0.00,,,0.00,meteohub,2013-09-11 09:42:00,
2013-09-11 05:47:00,74.1,72.0,30.00,NE,54,1.0,4.0,93,0.00,,,0.00,meteohub,2013-09-11 09:47:00,
2013-09-11 05:52:00,74.1,72.0,30.00,NE,55,3.0,4.0,93,0.00,,,0.00,meteohub,2013-09-11 09:52:00,
2013-09-11 05:57:00,74.1,72.0,30.01,ENE,65,2.0,4.0,93,0.00,,,0.00,meteohub,2013-09-11 09:57:00,
2013-09-11 06:02:00,74.1,72.0,30.01,ENE,64,1.0,4.0,93,0.00,,,0.00,meteohub,2013-09-11 10:02:00,
2013-09-11 06:07:00,74.1,72.0,30.01,ENE,66,0.0,4.0,93,0.00,,,0.00,meteohub,2013-09-11 10:07:00,
2013-09-11 06:12:00,74.1,72.0,30.01,ENE,66,1.0,4.0,93,0.00,,,0.00,meteohub,2013-09-11 10:12:00,
2013-09-11 06:17:00,74.3,72.1,30.01,ENE,69,0.0,5.0,93,0.00,,,0.00,meteohub,2013-09-11 10:17:00,
2013-09-11 06:22:00,74.3,72.1,30.01,NE,53,3.0,5.0,93,0.00,,,0.00,meteohub,2013-09-11 10:22:00,
2013-09-11 06:27:00,74.3,72.1,30.01,ENE,71,2.0,3.0,93,0.00,,,0.00,meteohub,2013-09-11 10:27:00,
2013-09-11 06:32:00,74.5,72.3,30.02,ESE,113,0.0,5.0,93,0.00,,,0.00,meteohub,2013-09-11 10:32:00,
2013-09-11 06:37:00,74.5,72.3,30.02,SSE,152,2.0,6.0,93,0.00,,,0.00,meteohub,2013-09-11 10:37:00,
2013-09-11 06:42:00,74.7,72.1,30.02,ENE,67,0.0,6.0,92,0.00,,,0.00,meteohub,2013-09-11 10:42:00,
2013-09-11 06:47:00,74.7,72.1,30.02,ENE,58,1.0,6.0,92,0.00,,,0.00,meteohub,2013-09-11 10:47:00,
2013-09-11 06:52:00,74.7,72.1,30.02,East,92,1.0,6.0,92,0.00,,,0.00,meteohub,2013-09-11 10:52:00,
2013-09-11 06:57:00,74.7,72.1,30.02,ESE,108,0.0,4.0,92,0.00,,,0.00,meteohub,2013-09-11 10:57:00,
2013-09-11 07:02:00,74.8,72.3,30.02,ENE,63,0.0,4.0,92,0.00,,,0.00,meteohub,2013-09-11 11:02:00,
2013-09-11 07:07:00,74.8,72.7,30.02,ENE,62,1.0,4.0,93,0.00,,,0.00,meteohub,2013-09-11 11:07:00,
2013-09-11 07:12:00,74.8,72.3,30.02,NE,51,3.0,5.0,92,0.00,,,0.00,meteohub,2013-09-11 11:12:00,
2013-09-11 07:17:00,74.8,72.7,30.02,NE,53,1.0,5.0,93,0.00,,,0.00,meteohub,2013-09-11 11:17:00,
2013-09-11 07:22:00,74.8,72.7,30.02,ENE,57,1.0,5.0,93,0.00,,,0.00,meteohub,2013-09-11 11:22:00,
2013-09-11 07:27:00,75.0,72.9,30.03,East,80,0.0,5.0,93,0.00,,,0.00,meteohub,2013-09-11 11:27:00,
2013-09-11 07:32:00,75.0,72.9,30.03,ENE,63,3.0,5.0,93,0.00,,,0.00,meteohub,2013-09-11 11:32:00,
2013-09-11 07:37:00,75.2,73.0,30.03,ENE,60,0.0,4.0,93,0.00,,,0.00,meteohub,2013-09-11 11:37:00,
2013-09-11 07:42:00,75.4,73.2,30.03,ENE,71,1.0,7.0,93,0.00,,,0.00,meteohub,2013-09-11 11:42:00,
2013-09-11 07:47:00,75.6,73.4,30.03,NE,46,5.0,7.0,93,0.00,,,0.00,meteohub,2013-09-11 11:47:00,
2013-09-11 07:52:00,75.7,73.6,30.03,SSE,155,0.0,7.0,93,0.00,,,0.00,meteohub,2013-09-11 11:52:00,
2013-09-11 07:57:00,75.9,73.8,30.03,NE,44,0.0,9.0,93,0.00,,,0.00,meteohub,2013-09-11 11:57:00,
2013-09-11 08:02:00,76.1,73.6,30.03,ENE,59,1.0,9.0,92,0.00,,,0.00,meteohub,2013-09-11 12:02:00,
2013-09-11 08:07:00,76.5,73.9,30.03,NE,36,2.0,9.0,92,0.00,,,0.00,meteohub,2013-09-11 12:07:00,
2013-09-11 08:12:00,76.6,73.8,30.03,SSE,165,3.0,6.0,91,0.00,,,0.00,meteohub,2013-09-11 12:12:00,
2013-09-11 08:17:00,77.2,73.9,30.04,NE,50,4.0,8.0,90,0.00,,,0.00,meteohub,2013-09-11 12:17:00,
2013-09-11 08:22:00,77.7,74.3,30.04,ENE,63,3.0,8.0,89,0.00,,,0.00,meteohub,2013-09-11 12:22:00,
2013-09-11 08:27:00,78.3,74.5,30.04,ESE,107,1.0,8.0,88,0.00,,,0.00,meteohub,2013-09-11 12:27:00,
2013-09-11 08:32:00,78.6,74.5,30.04,ENE,66,3.0,7.0,87,0.00,,,0.00,meteohub,2013-09-11 12:32:00,
2013-09-11 08:37:00,79.2,74.7,30.04,ENE,71,1.0,9.0,86,0.00,,,0.00,meteohub,2013-09-11 12:37:00,
2013-09-11 08:42:00,79.5,74.7,30.04,SE,138,4.0,9.0,85,0.00,,,0.00,meteohub,2013-09-11 12:42:00,
2013-09-11 08:47:00,79.9,75.0,30.05,SSE,158,2.0,9.0,85,0.00,,,0.00,meteohub,2013-09-11 12:47:00,
2013-09-11 08:52:00,80.2,75.0,30.05,ENE,70,2.0,8.0,84,0.00,,,0.00,meteohub,2013-09-11 12:52:00,
2013-09-11 08:57:00,80.6,75.0,30.05,East,94,5.0,8.0,83,0.00,,,0.00,meteohub,2013-09-11 12:57:00,
2013-09-11 09:02:00,81.0,75.0,30.05,East,84,3.0,8.0,82,0.00,,,0.00,meteohub,2013-09-11 13:02:00,
2013-09-11 09:07:00,81.1,75.2,30.04,NNE,15,0.0,9.0,82,0.00,,,0.00,meteohub,2013-09-11 13:07:00,
2013-09-11 09:12:00,81.3,75.4,30.05,ENE,63,4.0,11.0,82,0.00,,,0.00,meteohub,2013-09-11 13:12:00,
2013-09-11 09:17:00,81.9,75.4,30.05,ESE,118,2.0,11.0,81,0.00,,,0.00,meteohub,2013-09-11 13:17:00,
2013-09-11 09:22:00,82.0,75.2,30.04,ENE,69,2.0,11.0,80,0.00,,,0.00,meteohub,2013-09-11 13:22:00,
2013-09-11 09:27:00,82.6,75.7,30.04,ENE,61,3.0,10.0,80,0.00,,,0.00,meteohub,2013-09-11 13:27:00,
2013-09-11 09:32:00,82.9,75.7,30.04,NE,42,3.0,10.0,79,0.00,,,0.00,meteohub,2013-09-11 13:32:00,
2013-09-11 09:37:00,83.1,75.6,30.05,ESE,108,3.0,10.0,78,0.00,,,0.00,meteohub,2013-09-11 13:37:00,
2013-09-11 09:42:00,83.1,75.6,30.05,ENE,74,1.0,10.0,78,0.00,,,0.00,meteohub,2013-09-11 13:42:00,
2013-09-11 09:47:00,83.3,75.4,30.05,NE,54,8.0,10.0,77,0.00,,,0.00,meteohub,2013-09-11 13:47:00,
2013-09-11 09:52:00,83.7,75.7,30.05,North,0,1.0,10.0,77,0.00,,,0.00,meteohub,2013-09-11 13:52:00,
2013-09-11 09:57:00,83.8,75.9,30.05,ENE,67,4.0,10.0,77,0.00,,,0.00,meteohub,2013-09-11 13:57:00,
2013-09-11 10:02:00,84.4,75.6,30.05,ESE,117,5.0,10.0,75,0.00,,,0.00,meteohub,2013-09-11 14:02:00,
2013-09-11 10:07:00,83.8,75.0,30.04,SSE,167,3.0,13.0,75,0.00,,,0.00,meteohub,2013-09-11 14:07:00,
2013-09-11 10:12:00,84.0,75.6,30.04,NE,34,7.0,13.0,76,0.00,,,0.00,meteohub,2013-09-11 14:12:00,
2013-09-11 10:17:00,84.2,75.0,30.04,East,98,3.0,14.0,74,0.00,,,0.00,meteohub,2013-09-11 14:17:00,
2013-09-11 10:22:00,84.7,75.2,30.05,ENE,69,8.0,14.0,73,0.00,,,0.00,meteohub,2013-09-11 14:22:00,
2013-09-11 10:27:00,84.7,75.2,30.05,SE,130,3.0,14.0,73,0.00,,,0.00,meteohub,2013-09-11 14:27:00,
2013-09-11 10:32:00,85.3,74.8,30.05,East,80,6.0,11.0,71,0.00,,,0.00,meteohub,2013-09-11 14:32:00,
2013-09-11 10:37:00,85.6,74.7,30.05,NE,53,4.0,18.0,70,0.00,,,0.00,meteohub,2013-09-11 14:37:00,
2013-09-11 10:42:00,86.2,74.3,30.05,SSW,198,2.0,18.0,68,0.00,,,0.00,meteohub,2013-09-11 14:42:00,
2013-09-11 10:47:00,86.5,74.7,30.04,NNE,17,5.0,18.0,68,0.00,,,0.00,meteohub,2013-09-11 14:47:00,
2013-09-11 10:52:00,87.1,73.9,30.04,ESE,111,7.0,13.0,65,0.00,,,0.00,meteohub,2013-09-11 14:52:00,
2013-09-11 10:57:00,86.7,74.5,30.04,NNE,15,7.0,14.0,67,0.00,,,0.00,meteohub,2013-09-11 14:57:00,
2013-09-11 11:02:00,87.3,73.0,30.04,ENE,61,5.0,14.0,63,0.00,,,0.00,meteohub,2013-09-11 15:02:00,
2013-09-11 11:07:00,87.6,73.4,30.04,SE,126,9.0,14.0,63,0.00,,,0.00,meteohub,2013-09-11 15:07:00,
2013-09-11 11:12:00,86.7,71.2,30.04,ENE,66,3.0,13.0,60,0.00,,,0.00,meteohub,2013-09-11 15:12:00,
2013-09-11 11:17:00,86.4,71.2,30.04,East,88,3.0,15.0,61,0.00,,,0.00,meteohub,2013-09-11 15:17:00,
2013-09-11 11:22:00,86.0,71.4,30.04,ESE,107,11.0,16.0,62,0.00,,,0.00,meteohub,2013-09-11 15:22:00,
2013-09-11 11:27:00,86.2,71.1,30.04,ESE,107,3.0,16.0,61,0.00,,,0.00,meteohub,2013-09-11 15:27:00,
2013-09-11 11:32:00,86.4,70.9,30.04,SE,128,5.0,16.0,60,0.00,,,0.00,meteohub,2013-09-11 15:32:00,
2013-09-11 11:37:00,86.7,70.7,30.04,SSE,161,6.0,16.0,59,0.00,,,0.00,meteohub,2013-09-11 15:37:00,
2013-09-11 11:42:00,86.9,71.4,30.04,ENE,58,5.0,16.0,60,0.00,,,0.00,meteohub,2013-09-11 15:42:00,
2013-09-11 11:47:00,88.0,71.4,30.03,SSE,161,2.0,16.0,58,0.00,,,0.00,meteohub,2013-09-11 15:47:00,
2013-09-11 11:52:00,89.1,71.2,30.03,SE,140,3.0,16.0,56,0.00,,,0.00,meteohub,2013-09-11 15:52:00,
2013-09-11 11:57:00,89.2,70.9,30.03,ENE,75,4.0,11.0,55,0.00,,,0.00,meteohub,2013-09-11 15:57:00,
2013-09-11 12:02:00,89.4,69.4,30.03,ESE,119,7.0,11.0,52,0.00,,,0.00,meteohub,2013-09-11 16:02:00,
2013-09-11 12:07:00,89.2,70.3,30.03,ESE,113,1.0,12.0,54,0.00,,,0.00,meteohub,2013-09-11 16:07:00,
2013-09-11 12:12:00,88.9,68.9,30.03,ESE,121,5.0,12.0,52,0.00,,,0.00,meteohub,2013-09-11 16:12:00,
2013-09-11 12:17:00,89.4,68.9,30.03,NE,51,1.0,14.0,51,0.00,,,0.00,meteohub,2013-09-11 16:17:00,
2013-09-11 12:22:00,90.0,68.9,30.03,East,81,2.0,14.0,50,0.00,,,0.00,meteohub,2013-09-11 16:22:00,
2013-09-11 12:27:00,89.8,69.3,30.03,SE,127,1.0,10.0,51,0.00,,,0.00,meteohub,2013-09-11 16:27:00,
2013-09-11 12:32:00,89.6,67.8,30.03,SE,138,8.0,10.0,49,0.00,,,0.00,meteohub,2013-09-11 16:32:00,
2013-09-11 12:37:00,89.2,68.7,30.03,SW,236,1.0,14.0,51,0.00,,,0.00,meteohub,2013-09-11 16:37:00,
2013-09-11 12:42:00,88.9,66.6,30.03,WNW,282,2.0,15.0,48,0.00,,,0.00,meteohub,2013-09-11 16:42:00,
2013-09-11 12:47:00,88.3,66.7,30.03,ENE,71,3.0,15.0,49,0.00,,,0.00,meteohub,2013-09-11 16:47:00,
2013-09-11 12:52:00,88.5,66.4,30.03,ESE,123,5.0,15.0,48,0.00,,,0.00,meteohub,2013-09-11 16:52:00,
2013-09-11 12:57:00,88.7,65.3,30.03,NNE,30,7.0,13.0,46,0.00,,,0.00,meteohub,2013-09-11 16:57:00,
2013-09-11 13:02:00,89.2,66.9,30.03,ENE,75,5.0,13.0,48,0.00,,,0.00,meteohub,2013-09-11 17:02:00,
2013-09-11 13:07:00,90.1,66.6,30.03,SE,131,11.0,13.0,46,0.00,,,0.00,meteohub,2013-09-11 17:07:00,
2013-09-11 13:12:00,90.0,66.4,30.02,NE,51,2.0,13.0,46,0.00,,,0.00,meteohub,2013-09-11 17:12:00,
2013-09-11 13:17:00,89.6,66.0,30.02,ESE,118,3.0,13.0,46,0.00,,,0.00,meteohub,2013-09-11 17:17:00,
2013-09-11 13:22:00,90.0,67.1,30.02,SSE,153,5.0,14.0,47,0.00,,,0.00,meteohub,2013-09-11 17:22:00,
2013-09-11 13:27:00,89.6,65.5,30.02,ESE,118,5.0,14.0,45,0.00,,,0.00,meteohub,2013-09-11 17:27:00,
2013-09-11 13:32:00,90.1,65.3,30.02,ESE,120,11.0,14.0,44,0.00,,,0.00,meteohub,2013-09-11 17:32:00,
2013-09-11 13:37:00,89.1,66.2,30.02,SSE,164,1.0,14.0,47,0.00,,,0.00,meteohub,2013-09-11 17:37:00,
2013-09-11 13:42:00,90.1,65.8,30.02,East,86,2.0,15.0,45,0.00,,,0.00,meteohub,2013-09-11 17:42:00,
2013-09-11 13:47:00,90.1,65.3,30.02,SE,129,3.0,15.0,44,0.00,,,0.00,meteohub,2013-09-11 17:47:00,
2013-09-11 13:52:00,90.7,65.8,30.01,ENE,74,2.0,15.0,44,0.00,,,0.00,meteohub,2013-09-11 17:52:00,
2013-09-11 13:57:00,91.2,66.9,30.01,NNE,20,3.0,14.0,45,0.00,,,0.00,meteohub,2013-09-11 17:57:00,
2013-09-11 14:02:00,91.0,64.8,30.01,East,80,2.0,12.0,42,0.00,,,0.00,meteohub,2013-09-11 18:02:00,
2013-09-11 14:07:00,91.2,65.7,30.01,NE,46,8.0,12.0,43,0.00,,,0.00,meteohub,2013-09-11 18:07:00,
2013-09-11 14:12:00,90.1,65.3,30.01,NE,49,7.0,18.0,44,0.00,,,0.00,meteohub,2013-09-11 18:12:00,
2013-09-11 14:17:00,90.1,65.3,30.01,SE,144,4.0,18.0,44,0.00,,,0.00,meteohub,2013-09-11 18:17:00,
2013-09-11 14:22:00,90.7,65.8,30.00,NE,54,4.0,18.0,44,0.00,,,0.00,meteohub,2013-09-11 18:22:00,
2013-09-11 14:27:00,90.9,64.6,30.00,SE,124,8.0,14.0,42,0.00,,,0.00,meteohub,2013-09-11 18:27:00,
2013-09-11 14:32:00,90.3,64.0,30.00,East,83,5.0,14.0,42,0.00,,,0.00,meteohub,2013-09-11 18:32:00,
2013-09-11 14:37:00,90.7,65.1,29.99,SSE,149,6.0,15.0,43,0.00,,,0.00,meteohub,2013-09-11 18:37:00,
2013-09-11 14:42:00,91.0,66.0,29.99,ESE,107,9.0,15.0,44,0.00,,,0.00,meteohub,2013-09-11 18:42:00,
2013-09-11 14:47:00,91.9,66.2,29.99,ESE,118,7.0,15.0,43,0.00,,,0.00,meteohub,2013-09-11 18:47:00,
2013-09-11 14:52:00,92.1,65.7,29.99,SSE,147,10.0,12.0,42,0.00,,,0.00,meteohub,2013-09-11 18:52:00,
2013-09-11 14:57:00,92.7,66.2,29.99,ESE,103,2.0,12.0,42,0.00,,,0.00,meteohub,2013-09-11 18:57:00,
2013-09-11 15:02:00,91.9,65.5,29.98,ESE,111,1.0,11.0,42,0.00,,,0.00,meteohub,2013-09-11 19:02:00,
2013-09-11 15:07:00,92.1,66.4,29.98,SSE,152,5.0,14.0,43,0.00,,,0.00,meteohub,2013-09-11 19:07:00,
2013-09-11 15:12:00,92.8,67.1,29.98,NNE,26,5.0,15.0,43,0.00,,,0.00,meteohub,2013-09-11 19:12:00,
2013-09-11 15:17:00,93.7,66.6,29.98,East,94,2.0,15.0,41,0.00,,,0.00,meteohub,2013-09-11 19:17:00,
2013-09-11 15:22:00,93.0,66.6,29.97,ENE,73,1.0,12.0,42,0.00,,,0.00,meteohub,2013-09-11 19:22:00,
2013-09-11 15:27:00,92.5,66.0,29.97,East,100,2.0,12.0,42,0.00,,,0.00,meteohub,2013-09-11 19:27:00,
2013-09-11 15:32:00,91.8,66.0,29.97,ESE,123,10.0,13.0,43,0.00,,,0.00,meteohub,2013-09-11 19:32:00,
2013-09-11 15:37:00,90.9,66.6,29.97,ESE,121,7.0,13.0,45,0.00,,,0.00,meteohub,2013-09-11 19:37:00,
2013-09-11 15:42:00,90.3,66.7,29.97,NNE,15,3.0,16.0,46,0.00,,,0.00,meteohub,2013-09-11 19:42:00,
2013-09-11 15:47:00,91.0,67.5,29.97,ESE,115,15.0,16.0,46,0.00,,,0.00,meteohub,2013-09-11 19:47:00,
2013-09-11 15:52:00,91.2,66.9,29.97,ESE,110,4.0,15.0,45,0.00,,,0.00,meteohub,2013-09-11 19:52:00,
2013-09-11 15:57:00,91.2,67.5,29.97,ESE,117,4.0,15.0,46,0.00,,,0.00,meteohub,2013-09-11 19:57:00,
2013-09-11 16:02:00,91.4,67.6,29.97,ESE,117,2.0,15.0,46,0.00,,,0.00,meteohub,2013-09-11 20:02:00,
2013-09-11 16:07:00,91.4,67.1,29.96,ESE,121,4.0,13.0,45,0.00,,,0.00,meteohub,2013-09-11 20:07:00,
2013-09-11 16:12:00,91.6,66.6,29.96,NE,55,4.0,13.0,44,0.00,,,0.00,meteohub,2013-09-11 20:12:00,
2013-09-11 16:17:00,91.9,67.6,29.96,NE,53,3.0,11.0,45,0.00,,,0.00,meteohub,2013-09-11 20:17:00,
2013-09-11 16:22:00,92.7,66.2,29.96,SE,146,6.0,10.0,42,0.00,,,0.00,meteohub,2013-09-11 20:22:00,
2013-09-11 16:27:00,91.9,66.2,29.96,ENE,58,4.0,10.0,43,0.00,,,0.00,meteohub,2013-09-11 20:27:00,
2013-09-11 16:32:00,92.1,67.1,29.96,ESE,121,3.0,10.0,44,0.00,,,0.00,meteohub,2013-09-11 20:32:00,
2013-09-11 16:37:00,91.9,67.6,29.96,ESE,115,2.0,10.0,45,0.00,,,0.00,meteohub,2013-09-11 20:37:00,
2013-09-11 16:42:00,91.6,67.3,29.96,SE,128,7.0,10.0,45,0.00,,,0.00,meteohub,2013-09-11 20:42:00,
2013-09-11 16:47:00,91.6,67.3,29.96,ESE,116,1.0,12.0,45,0.00,,,0.00,meteohub,2013-09-11 20:47:00,
2013-09-11 16:52:00,92.5,68.0,29.96,SE,139,6.0,12.0,45,0.00,,,0.00,meteohub,2013-09-11 20:52:00,
2013-09-11 16:57:00,92.8,67.6,29.96,ESE,106,5.0,10.0,44,0.00,,,0.00,meteohub,2013-09-11 20:57:00,
2013-09-11 17:02:00,91.8,67.5,29.96,SE,145,5.0,9.0,45,0.00,,,0.00,meteohub,2013-09-11 21:02:00,
2013-09-11 17:07:00,91.6,67.8,29.96,North,350,2.0,10.0,46,0.00,,,0.00,meteohub,2013-09-11 21:07:00,
2013-09-11 17:12:00,91.8,69.8,29.96,ESE,123,8.0,10.0,49,0.00,,,0.00,meteohub,2013-09-11 21:12:00,
2013-09-11 17:17:00,91.6,70.9,29.96,ESE,111,4.0,10.0,51,0.00,,,0.00,meteohub,2013-09-11 21:17:00,
2013-09-11 17:22:00,91.6,70.3,29.96,SE,126,3.0,10.0,50,0.00,,,0.00,meteohub,2013-09-11 21:22:00,
2013-09-11 17:27:00,91.2,71.1,29.96,ENE,74,2.0,10.0,52,0.00,,,0.00,meteohub,2013-09-11 21:27:00,
2013-09-11 17:32:00,91.2,71.6,29.96,SE,136,3.0,10.0,53,0.00,,,0.00,meteohub,2013-09-11 21:32:00,
2013-09-11 17:37:00,90.9,71.4,29.96,ESE,123,7.0,10.0,53,0.00,,,0.00,meteohub,2013-09-11 21:37:00,
2013-09-11 17:42:00,90.3,71.4,29.96,ESE,102,1.0,10.0,54,0.00,,,0.00,meteohub,2013-09-11 21:42:00,
2013-09-11 17:47:00,90.7,72.3,29.96,ENE,78,2.0,9.0,55,0.00,,,0.00,meteohub,2013-09-11 21:47:00,
2013-09-11 17:52:00,90.5,71.6,29.96,East,86,1.0,9.0,54,0.00,,,0.00,meteohub,2013-09-11 21:52:00,
2013-09-11 17:57:00,90.1,71.2,29.96,East,85,1.0,8.0,54,0.00,,,0.00,meteohub,2013-09-11 21:57:00,
2013-09-11 18:02:00,90.0,71.6,29.96,ESE,115,2.0,8.0,55,0.00,,,0.00,meteohub,2013-09-11 22:02:00,
2013-09-11 18:07:00,90.1,72.3,29.96,ESE,110,4.0,8.0,56,0.00,,,0.00,meteohub,2013-09-11 22:07:00,
2013-09-11 18:12:00,90.7,71.8,29.96,NE,53,4.0,7.0,54,0.00,,,0.00,meteohub,2013-09-11 22:12:00,
2013-09-11 18:17:00,90.9,71.4,29.96,South,182,2.0,7.0,53,0.00,,,0.00,meteohub,2013-09-11 22:17:00,
2013-09-11 18:22:00,90.7,70.7,29.96,SSE,154,5.0,12.0,52,0.00,,,0.00,meteohub,2013-09-11 22:22:00,
2013-09-11 18:27:00,90.0,70.0,29.96,SE,127,6.0,12.0,52,0.00,,,0.00,meteohub,2013-09-11 22:27:00,
2013-09-11 18:32:00,89.4,71.1,29.96,SE,129,5.0,12.0,55,0.00,,,0.00,meteohub,2013-09-11 22:32:00,
2013-09-11 18:37:00,88.5,71.8,29.96,SE,145,2.0,11.0,58,0.00,,,0.00,meteohub,2013-09-11 22:37:00,
2013-09-11 18:42:00,88.3,70.2,29.96,ESE,120,3.0,11.0,55,0.00,,,0.00,meteohub,2013-09-11 22:42:00,
2013-09-11 18:47:00,88.0,69.8,29.96,SE,139,3.0,11.0,55,0.00,,,0.00,meteohub,2013-09-11 22:47:00,
2013-09-11 18:52:00,87.6,69.4,29.96,ESE,113,3.0,8.0,55,0.00,,,0.00,meteohub,2013-09-11 22:52:00,
2013-09-11 18:57:00,87.3,70.2,29.97,SE,142,3.0,10.0,57,0.00,,,0.00,meteohub,2013-09-11 22:57:00,
2013-09-11 19:02:00,86.9,69.8,29.96,SE,128,6.0,10.0,57,0.00,,,0.00,meteohub,2013-09-11 23:02:00,
2013-09-11 19:07:00,86.5,69.4,29.96,ESE,109,3.0,10.0,57,0.00,,,0.00,meteohub,2013-09-11 23:07:00,
2013-09-11 19:12:00,86.5,70.0,29.96,ESE,123,3.0,8.0,58,0.00,,,0.00,meteohub,2013-09-11 23:12:00,
2013-09-11 19:17:00,86.7,70.2,29.96,ESE,114,3.0,8.0,58,0.00,,,0.00,meteohub,2013-09-11 23:17:00,
2013-09-11 19:22:00,86.4,70.9,29.96,ESE,113,3.0,11.0,60,0.00,,,0.00,meteohub,2013-09-11 23:22:00,
2013-09-11 19:27:00,86.0,71.4,29.96,ESE,108,3.0,11.0,62,0.00,,,0.00,meteohub,2013-09-11 23:27:00,
2013-09-11 19:32:00,85.6,72.1,29.96,SE,136,3.0,11.0,64,0.00,,,0.00,meteohub,2013-09-11 23:32:00,
2013-09-11 19:37:00,85.3,71.8,29.96,South,175,3.0,10.0,64,0.00,,,0.00,meteohub,2013-09-11 23:37:00,
2013-09-11 19:42:00,85.1,71.1,29.96,ESE,107,7.0,10.0,63,0.00,,,0.00,meteohub,2013-09-11 23:42:00,
2013-09-11 19:47:00,84.9,70.9,29.96,ESE,115,1.0,9.0,63,0.00,,,0.00,meteohub,2013-09-11 23:47:00,
2013-09-11 19:52:00,84.9,70.9,29.96,SE,125,0.0,8.0,63,0.00,,,0.00,meteohub,2013-09-11 23:52:00,
2013-09-11 19:57:00,84.7,70.7,29.96,ESE,117,0.0,8.0,63,0.00,,,0.00,meteohub,2013-09-11 23:57:00,
2013-09-11 20:02:00,84.6,70.2,29.96,ESE,117,0.0,6.0,62,0.00,,,0.00,meteohub,2013-09-12 00:02:00,
2013-09-11 20:07:00,84.6,70.2,29.96,ESE,117,1.0,6.0,62,0.00,,,0.00,meteohub,2013-09-12 00:07:00,
2013-09-11 20:12:00,84.6,69.6,29.96,East,94,0.0,5.0,61,0.00,,,0.00,meteohub,2013-09-12 00:12:00,
2013-09-11 20:17:00,84.4,68.9,29.97,East,96,2.0,5.0,60,0.00,,,0.00,meteohub,2013-09-12 00:17:00,
2013-09-11 20:22:00,84.4,69.4,29.97,ESE,121,2.0,5.0,61,0.00,,,0.00,meteohub,2013-09-12 00:22:00,
2013-09-11 20:27:00,84.0,68.7,29.97,ESE,111,2.0,5.0,60,0.00,,,0.00,meteohub,2013-09-12 00:27:00,
2013-09-11 20:32:00,84.0,68.7,29.97,SE,126,1.0,5.0,60,0.00,,,0.00,meteohub,2013-09-12 00:32:00,
2013-09-11 20:37:00,83.8,68.5,29.98,ESE,115,2.0,5.0,60,0.00,,,0.00,meteohub,2013-09-12 00:37:00,
2013-09-11 20:42:00,83.8,68.5,29.98,ESE,113,1.0,6.0,60,0.00,,,0.00,meteohub,2013-09-12 00:42:00,
2013-09-11 20:47:00,83.8,68.9,29.98,ESE,111,1.0,7.0,61,0.00,,,0.00,meteohub,2013-09-12 00:47:00,
2013-09-11 20:52:00,83.8,70.3,29.98,ESE,117,4.0,7.0,64,0.00,,,0.00,meteohub,2013-09-12 00:52:00,
2013-09-11 20:57:00,83.8,70.9,29.98,East,99,0.0,5.0,65,0.00,,,0.00,meteohub,2013-09-12 00:57:00,
2013-09-11 21:02:00,84.0,72.0,29.98,East,99,1.0,5.0,67,0.00,,,0.00,meteohub,2013-09-12 01:02:00,
2013-09-11 21:07:00,84.0,72.3,29.99,East,95,0.0,5.0,68,0.00,,,0.00,meteohub,2013-09-12 01:07:00,
2013-09-11 21:12:00,83.8,72.5,29.99,East,95,1.0,3.0,69,0.00,,,0.00,meteohub,2013-09-12 01:12:00,
2013-09-11 21:17:00,83.8,72.5,29.99,East,96,0.0,5.0,69,0.00,,,0.00,meteohub,2013-09-12 01:17:00,
2013-09-11 21:22:00,83.7,72.9,29.99,ESE,118,0.0,5.0,70,0.00,,,0.00,meteohub,2013-09-12 01:22:00,
2013-09-11 21:27:00,83.7,72.9,29.99,ESE,117,1.0,5.0,70,0.00,,,0.00,meteohub,2013-09-12 01:27:00,
2013-09-11 21:32:00,83.5,72.7,29.99,ESE,117,0.0,5.0,70,0.00,,,0.00,meteohub,2013-09-12 01:32:00,
2013-09-11 21:37:00,83.3,72.9,29.98,ENE,66,0.0,5.0,71,0.00,,,0.00,meteohub,2013-09-12 01:37:00,
2013-09-11 21:42:00,83.1,72.7,29.98,ENE,76,1.0,4.0,71,0.00,,,0.00,meteohub,2013-09-12 01:42:00,
2013-09-11 21:47:00,82.9,72.5,29.98,ESE,114,2.0,5.0,71,0.00,,,0.00,meteohub,2013-09-12 01:47:00,
2013-09-11 21:52:00,82.9,72.5,29.98,ESE,104,2.0,5.0,71,0.00,,,0.00,meteohub,2013-09-12 01:52:00,
2013-09-11 21:57:00,82.9,72.5,29.98,ESE,117,3.0,7.0,71,0.00,,,0.00,meteohub,2013-09-12 01:57:00,
2013-09-11 22:02:00,82.9,72.5,29.99,ESE,115,5.0,9.0,71,0.00,,,0.00,meteohub,2013-09-12 02:02:00,
2013-09-11 22:07:00,82.8,72.0,29.99,SE,129,4.0,9.0,70,0.00,,,0.00,meteohub,2013-09-12 02:07:00,
2013-09-11 22:12:00,82.6,71.8,29.99,ESE,119,2.0,11.0,70,0.00,,,0.00,meteohub,2013-09-12 02:12:00,
2013-09-11 22:17:00,82.2,71.4,29.99,ESE,116,3.0,11.0,70,0.00,,,0.00,meteohub,2013-09-12 02:17:00,
2013-09-11 22:22:00,82.0,71.8,29.99,SSE,161,1.0,7.0,71,0.00,,,0.00,meteohub,2013-09-12 02:22:00,
2013-09-11 22:27:00,81.9,72.0,30.00,ESE,121,8.0,8.0,72,0.00,,,0.00,meteohub,2013-09-12 02:27:00,
2013-09-11 22:32:00,81.3,71.4,30.00,SSE,151,4.0,9.0,72,0.00,,,0.00,meteohub,2013-09-12 02:32:00,
2013-09-11 22:37:00,81.0,71.4,30.00,South,169,7.0,12.0,73,0.00,,,0.00,meteohub,2013-09-12 02:37:00,
2013-09-11 22:42:00,80.8,71.2,30.01,ESE,103,7.0,12.0,73,0.00,,,0.00,meteohub,2013-09-12 02:42:00,
2013-09-11 22:47:00,80.4,71.4,30.01,SSE,150,4.0,11.0,74,0.00,,,0.00,meteohub,2013-09-12 02:47:00,
2013-09-11 22:52:00,80.4,71.4,30.01,ESE,115,3.0,9.0,74,0.00,,,0.00,meteohub,2013-09-12 02:52:00,
2013-09-11 22:57:00,80.2,71.2,30.01,SE,144,7.0,9.0,74,0.00,,,0.00,meteohub,2013-09-12 02:57:00,
2013-09-11 23:02:00,80.1,71.4,30.00,SE,136,4.0,8.0,75,0.00,,,0.00,meteohub,2013-09-12 03:02:00,
2013-09-11 23:07:00,79.9,71.2,30.00,SSE,153,2.0,10.0,75,0.00,,,0.00,meteohub,2013-09-12 03:07:00,
2013-09-11 23:12:00,79.7,71.1,30.00,SE,126,5.0,10.0,75,0.00,,,0.00,meteohub,2013-09-12 03:12:00,
2013-09-11 23:17:00,79.5,71.2,30.00,ESE,119,5.0,8.0,76,0.00,,,0.00,meteohub,2013-09-12 03:17:00,
2013-09-11 23:22:00,79.3,71.1,30.00,ESE,121,2.0,9.0,76,0.00,,,0.00,meteohub,2013-09-12 03:22:00,
2013-09-11 23:27:00,79.3,71.4,30.00,ESE,117,2.0,9.0,77,0.00,,,0.00,meteohub,2013-09-12 03:27:00,
2013-09-11 23:32:00,79.2,71.2,30.00,SSE,150,1.0,6.0,77,0.00,,,0.00,meteohub,2013-09-12 03:32:00,
2013-09-11 23:37:00,79.2,71.2,30.00,SE,142,2.0,7.0,77,0.00,,,0.00,meteohub,2013-09-12 03:37:00,
2013-09-11 23:42:00,79.2,71.8,30.01,South,176,1.0,7.0,78,0.00,,,0.00,meteohub,2013-09-12 03:42:00,
2013-09-11 23:47:00,79.0,71.6,30.01,ESE,113,2.0,4.0,78,0.00,,,0.00,meteohub,2013-09-12 03:47:00,
2013-09-11 23:52:00,79.0,72.0,30.00,ESE,107,0.0,4.0,79,0.00,,,0.00,meteohub,2013-09-12 03:52:00,
2013-09-11 23:57:00,79.0,72.0,30.00,ESE,107,1.0,4.0,79,0.00,,,0.00,meteohub,2013-09-12 03:57:00,